MINOTAUR 4 DEB

基本信息
目录编号:
52037
目录名称:
MINOTAUR 4 DEB
国际标识:
2020-046AB
轨道中心:
EARTH
物体状态:
在轨
发射日期:
2020-07-15 UTC
轨道信息
数据来源: 国际轨道数据
星历时间: 2026-09-05T11:57:57+0800
半长轴: 6930.983km
偏心率: 0.0007479
轨道倾角: 53.978°
近地点辐角: 189.162°
升交点赤经: 251.762°
平近点角: 170.924°
近地点: 547.662km
远地点: 558.03km
周期: 95.709分钟
每日圈数: 15.045637
详细信息
发射场:
WLPIS
轨道高度:
LEO
数据来源:
AOE Integration Group
参考系:
TEME
时间系统:
UTC
历元类型:
SGP4
2D轨道图
3D轨道图
轨道高度分析图
轨道倾角分析图
轨道综合分析图
查看轨道综合分析图